Time,TemperatureF,DewpointF,PressureIn,WindDirection,WindDirectionDegrees,WindSpeedMPH,WindSpeedGustMPH,Humidity,HourlyPrecipIn,Conditions,Clouds,dailyrainin,SoftwareType,DateUTC
2013-01-23 00:02:00,12.0,10.4,30.35,SSW,204,1.0,2.0,89,0.00,,,0.00,meteohub,2013-01-23 06:02:00,
2013-01-23 00:12:00,12.0,10.6,30.35,SSW,204,0.0,3.0,88,0.00,,,0.00,meteohub,2013-01-23 06:12:00,
2013-01-23 00:17:00,12.0,10.6,30.35,SSW,204,0.0,3.0,88,0.00,,,0.00,meteohub,2013-01-23 06:17:00,
2013-01-23 00:27:00,12.0,10.4,30.35,SSW,204,0.0,3.0,88,0.00,,,0.00,meteohub,2013-01-23 06:27:00,
2013-01-23 00:32:00,12.0,10.4,30.35,SSW,204,0.0,2.0,88,0.00,,,0.00,meteohub,2013-01-23 06:32:00,
2013-01-23 00:42:00,12.0,10.2,30.35,SSW,204,1.0,2.0,88,0.00,,,0.00,meteohub,2013-01-23 06:42:00,
2013-01-23 00:52:00,12.0,10.2,30.35,SSW,204,0.0,2.0,88,0.00,,,0.00,meteohub,2013-01-23 06:52:00,
2013-01-23 00:57:00,12.0,10.0,30.34,SSW,204,0.0,2.0,88,0.00,,,0.00,meteohub,2013-01-23 06:57:00,
2013-01-23 01:02:00,12.0,9.9,30.34,SSW,204,0.0,2.0,88,0.00,,,0.00,meteohub,2013-01-23 07:02:00,
2013-01-23 01:12:00,12.0,9.9,30.33,SSW,204,1.0,2.0,88,0.00,,,0.00,meteohub,2013-01-23 07:12:00,
2013-01-23 01:17:00,12.0,9.9,30.32,SSW,204,0.0,2.0,88,0.00,,,0.00,meteohub,2013-01-23 07:17:00,
2013-01-23 01:22:00,12.0,9.9,30.33,SSW,204,0.0,2.0,88,0.00,,,0.00,meteohub,2013-01-23 07:22:00,
2013-01-23 01:27:00,12.0,9.9,30.33,SSW,204,0.0,2.0,88,0.00,,,0.00,meteohub,2013-01-23 07:27:00,
2013-01-23 01:37:00,12.0,9.7,30.33,SSW,204,0.0,1.0,88,0.00,,,0.00,meteohub,2013-01-23 07:37:00,
2013-01-23 01:42:00,12.0,9.7,30.33,SSW,204,0.0,1.0,88,0.00,,,0.00,meteohub,2013-01-23 07:42:00,
2013-01-23 01:52:00,12.0,10.0,30.33,SSW,204,0.0,2.0,89,0.00,,,0.00,meteohub,2013-01-23 07:52:00,
2013-01-23 01:57:00,12.0,9.7,30.33,SSW,204,0.0,2.0,88,0.00,,,0.00,meteohub,2013-01-23 07:57:00,
2013-01-23 02:07:00,10.9,9.9,30.33,SSW,204,1.0,0.0,88,0.00,,,0.00,meteohub,2013-01-23 08:07:00,
2013-01-23 02:12:00,10.9,9.9,30.33,SSW,204,0.0,1.0,88,0.00,,,0.00,meteohub,2013-01-23 08:12:00,
2013-01-23 02:17:00,12.0,10.0,30.32,SSW,204,0.0,2.0,89,0.00,,,0.00,meteohub,2013-01-23 08:17:00,
2013-01-23 02:27:00,12.0,10.4,30.32,SSW,204,0.0,3.0,89,0.00,,,0.00,meteohub,2013-01-23 08:27:00,
2013-01-23 02:32:00,12.0,9.7,30.32,SSW,204,1.0,3.0,88,0.00,,,0.00,meteohub,2013-01-23 08:32:00,
2013-01-23 02:37:00,12.0,9.1,30.32,SSW,204,0.0,3.0,87,0.00,,,0.00,meteohub,2013-01-23 08:37:00,
2013-01-23 02:47:00,12.0,9.1,30.31,SSW,204,2.0,3.0,86,0.00,,,0.00,meteohub,2013-01-23 08:47:00,
2013-01-23 02:52:00,12.0,9.5,30.32,SSW,204,1.0,3.0,86,0.00,,,0.00,meteohub,2013-01-23 08:52:00,
2013-01-23 02:57:00,10.9,9.7,30.32,SSW,204,0.0,3.0,87,0.00,,,0.00,meteohub,2013-01-23 08:57:00,
2013-01-23 03:07:00,12.0,9.5,30.32,SSW,204,0.0,3.0,88,0.00,,,0.00,meteohub,2013-01-23 09:07:00,
2013-01-23 03:12:00,12.0,9.1,30.31,SSW,204,0.0,2.0,88,0.00,,,0.00,meteohub,2013-01-23 09:12:00,
2013-01-23 03:17:00,12.0,9.3,30.32,SSW,204,0.0,1.0,88,0.00,,,0.00,meteohub,2013-01-23 09:17:00,
2013-01-23 03:27:00,12.0,8.8,30.32,SSW,204,0.0,1.0,88,0.00,,,0.00,meteohub,2013-01-23 09:27:00,
2013-01-23 03:32:00,10.9,8.8,30.31,SSW,204,1.0,0.0,87,0.00,,,0.00,meteohub,2013-01-23 09:32:00,
2013-01-23 03:42:00,10.9,9.1,30.30,SSW,204,0.0,2.0,88,0.00,,,0.00,meteohub,2013-01-23 09:42:00,
2013-01-23 03:47:00,10.9,9.3,30.30,SSW,204,0.0,2.0,88,0.00,,,0.00,meteohub,2013-01-23 09:47:00,
2013-01-23 03:52:00,10.9,9.3,30.30,SSW,204,2.0,4.0,88,0.00,,,0.00,meteohub,2013-01-23 09:52:00,
2013-01-23 03:57:00,10.9,9.0,30.30,SSW,204,1.0,4.0,87,0.00,,,0.00,meteohub,2013-01-23 09:57:00,
2013-01-23 04:07:00,10.9,9.9,30.30,SSW,204,0.0,3.0,88,0.00,,,0.00,meteohub,2013-01-23 10:07:00,
2013-01-23 04:12:00,10.9,9.5,30.30,SSW,204,0.0,3.0,88,0.00,,,0.00,meteohub,2013-01-23 10:12:00,
2013-01-23 04:17:00,10.9,9.1,30.30,SSW,204,0.0,3.0,88,0.00,,,0.00,meteohub,2013-01-23 10:17:00,
2013-01-23 04:22:00,10.9,9.3,30.30,SSW,204,0.0,1.0,88,0.00,,,0.00,meteohub,2013-01-23 10:22:00,
2013-01-23 04:27:00,10.9,9.5,30.30,SSW,204,0.0,1.0,88,0.00,,,0.00,meteohub,2013-01-23 10:27:00,
2013-01-23 04:37:00,10.9,9.3,30.30,SSW,204,0.0,0.0,88,0.00,,,0.00,meteohub,2013-01-23 10:37:00,
2013-01-23 04:47:00,10.9,9.5,30.29,SSW,204,0.0,0.0,88,0.00,,,0.00,meteohub,2013-01-23 10:47:00,
2013-01-23 04:52:00,10.9,9.3,30.29,SSW,204,2.0,0.0,88,0.00,,,0.00,meteohub,2013-01-23 10:52:00,
2013-01-23 04:57:00,10.9,8.4,30.30,SSW,204,0.0,2.0,88,0.00,,,0.00,meteohub,2013-01-23 10:57:00,
2013-01-23 05:07:00,10.9,8.6,30.29,SSW,204,0.0,2.0,88,0.00,,,0.00,meteohub,2013-01-23 11:07:00,
2013-01-23 05:12:00,10.9,9.5,30.29,SSW,204,1.0,2.0,89,0.00,,,0.00,meteohub,2013-01-23 11:12:00,
2013-01-23 05:17:00,10.9,9.9,30.29,SSW,204,2.0,2.0,89,0.00,,,0.00,meteohub,2013-01-23 11:17:00,
2013-01-23 05:22:00,10.0,9.1,30.29,SSW,204,2.0,2.0,88,0.00,,,0.00,meteohub,2013-01-23 11:22:00,
2013-01-23 05:27:00,10.0,9.3,30.28,SSW,204,1.0,3.0,89,0.00,,,0.00,meteohub,2013-01-23 11:27:00,
2013-01-23 05:32:00,10.0,9.3,30.28,SSW,204,0.0,3.0,89,0.00,,,0.00,meteohub,2013-01-23 11:32:00,
2013-01-23 05:42:00,10.0,8.8,30.28,SSW,204,0.0,2.0,89,0.00,,,0.00,meteohub,2013-01-23 11:42:00,
2013-01-23 05:47:00,10.0,8.2,30.28,SSW,204,0.0,0.0,88,0.00,,,0.00,meteohub,2013-01-23 11:47:00,
2013-01-23 05:52:00,10.0,7.7,30.29,SSW,204,0.0,1.0,88,0.00,,,0.00,meteohub,2013-01-23 11:52:00,
2013-01-23 05:57:00,10.0,7.3,30.29,SSW,204,0.0,1.0,88,0.00,,,0.00,meteohub,2013-01-23 11:57:00,
2013-01-23 06:07:00,10.0,7.2,30.29,SSW,204,0.0,0.0,88,0.00,,,0.00,meteohub,2013-01-23 12:07:00,
2013-01-23 06:12:00,10.0,7.2,30.30,SSW,204,0.0,0.0,89,0.00,,,0.00,meteohub,2013-01-23 12:12:00,
2013-01-23 06:17:00,10.0,7.2,30.30,SSW,204,0.0,0.0,89,0.00,,,0.00,meteohub,2013-01-23 12:17:00,
2013-01-23 06:27:00,9.0,7.9,30.30,SSW,204,1.0,0.0,88,0.00,,,0.00,meteohub,2013-01-23 12:27:00,
2013-01-23 06:32:00,9.0,7.9,30.30,SSW,204,0.0,1.0,89,0.00,,,0.00,meteohub,2013-01-23 12:32:00,
2013-01-23 06:37:00,9.0,7.9,30.30,SSW,204,0.0,1.0,89,0.00,,,0.00,meteohub,2013-01-23 12:37:00,
2013-01-23 06:47:00,9.0,7.7,30.30,SSW,204,0.0,0.0,89,0.00,,,0.00,meteohub,2013-01-23 12:47:00,
2013-01-23 06:57:00,9.0,7.5,30.30,SSW,204,0.0,0.0,89,0.00,,,0.00,meteohub,2013-01-23 12:57:00,
2013-01-23 07:07:00,9.0,7.7,30.31,SSW,204,0.0,0.0,89,0.00,,,0.00,meteohub,2013-01-23 13:07:00,
2013-01-23 07:12:00,9.0,7.9,30.31,SSW,204,0.0,0.0,89,0.00,,,0.00,meteohub,2013-01-23 13:12:00,
2013-01-23 07:17:00,9.0,7.9,30.31,SSW,204,0.0,0.0,89,0.00,,,0.00,meteohub,2013-01-23 13:17:00,
2013-01-23 07:22:00,9.0,8.1,30.31,SSW,204,0.0,0.0,89,0.00,,,0.00,meteohub,2013-01-23 13:22:00,
2013-01-23 07:27:00,9.0,8.2,30.32,SSW,204,0.0,0.0,89,0.00,,,0.00,meteohub,2013-01-23 13:27:00,
2013-01-23 07:32:00,9.0,7.9,30.32,SSW,204,0.0,0.0,89,0.00,,,0.00,meteohub,2013-01-23 13:32:00,
2013-01-23 07:37:00,9.0,8.1,30.31,SSW,204,0.0,0.0,89,0.00,,,0.00,meteohub,2013-01-23 13:37:00,
2013-01-23 07:42:00,9.0,8.1,30.31,SSW,204,0.0,0.0,89,0.00,,,0.00,meteohub,2013-01-23 13:42:00,
2013-01-23 07:47:00,9.0,8.1,30.31,SSW,204,0.0,1.0,89,0.00,,,0.00,meteohub,2013-01-23 13:47:00,
2013-01-23 07:52:00,9.0,7.9,30.31,SSW,204,0.0,1.0,89,0.00,,,0.00,meteohub,2013-01-23 13:52:00,
2013-01-23 07:57:00,9.0,7.9,30.31,SSW,204,0.0,1.0,89,0.00,,,0.00,meteohub,2013-01-23 13:57:00,
2013-01-23 08:02:00,9.0,8.1,30.31,SSW,204,0.0,0.0,90,0.00,,,0.00,meteohub,2013-01-23 14:02:00,
2013-01-23 08:07:00,9.0,8.6,30.31,SSW,204,0.0,0.0,90,0.00,,,0.00,meteohub,2013-01-23 14:07:00,
2013-01-23 08:12:00,10.0,8.2,30.31,SSW,204,0.0,0.0,90,0.00,,,0.00,meteohub,2013-01-23 14:12:00,
2013-01-23 08:17:00,10.0,8.8,30.31,SSW,204,0.0,1.0,90,0.00,,,0.00,meteohub,2013-01-23 14:17:00,
2013-01-23 08:22:00,10.0,9.1,30.32,SSW,204,0.0,1.0,91,0.00,,,0.00,meteohub,2013-01-23 14:22:00,
2013-01-23 08:27:00,10.9,9.5,30.32,SSW,204,0.0,1.0,91,0.00,,,0.00,meteohub,2013-01-23 14:27:00,
2013-01-23 08:32:00,12.0,9.9,30.32,SSW,204,0.0,1.0,92,0.00,,,0.00,meteohub,2013-01-23 14:32:00,
2013-01-23 08:37:00,12.0,10.6,30.32,SSW,204,0.0,0.0,92,0.00,,,0.00,meteohub,2013-01-23 14:37:00,
2013-01-23 08:42:00,12.9,10.9,30.32,SSW,204,0.0,1.0,92,0.00,,,0.00,meteohub,2013-01-23 14:42:00,
2013-01-23 08:52:00,15.1,11.7,30.33,SSW,204,0.0,1.0,91,0.00,,,0.00,meteohub,2013-01-23 14:52:00,
2013-01-23 08:57:00,15.1,11.8,30.33,SSW,204,0.0,2.0,89,0.00,,,0.00,meteohub,2013-01-23 14:57:00,
2013-01-23 09:07:00,16.0,12.7,30.34,SSW,204,0.0,2.0,90,0.00,,,0.00,meteohub,2013-01-23 15:07:00,
2013-01-23 09:12:00,17.1,13.6,30.34,SSW,204,1.0,4.0,90,0.00,,,0.00,meteohub,2013-01-23 15:12:00,
2013-01-23 09:17:00,17.1,14.4,30.34,SSW,204,3.0,4.0,89,0.00,,,0.00,meteohub,2013-01-23 15:17:00,
2013-01-23 09:22:00,18.0,14.5,30.34,SSW,204,1.0,4.0,88,0.00,,,0.00,meteohub,2013-01-23 15:22:00,
2013-01-23 09:27:00,19.0,15.8,30.35,SSW,204,0.0,3.0,89,0.00,,,0.00,meteohub,2013-01-23 15:27:00,
2013-01-23 09:32:00,19.9,16.5,30.35,SSW,205,0.0,3.0,90,0.00,,,0.00,meteohub,2013-01-23 15:32:00,
2013-01-23 09:37:00,21.0,17.1,30.35,SSW,204,0.0,4.0,89,0.00,,,0.00,meteohub,2013-01-23 15:37:00,
2013-01-23 09:42:00,21.0,18.1,30.35,North,9,5.0,5.0,89,0.00,,,0.00,meteohub,2013-01-23 15:42:00,
2013-01-23 09:47:00,23.0,19.6,30.36,NNE,25,0.0,8.0,89,0.00,,,0.00,meteohub,2013-01-23 15:47:00,
2013-01-23 09:52:00,24.1,19.8,30.37,NNE,33,8.0,11.0,87,0.00,,,0.00,meteohub,2013-01-23 15:52:00,
2013-01-23 09:57:00,25.0,19.9,30.37,NNE,27,7.0,14.0,84,0.00,,,0.00,meteohub,2013-01-23 15:57:00,
2013-01-23 10:02:00,26.1,19.6,30.37,North,5,6.0,14.0,81,0.00,,,0.00,meteohub,2013-01-23 16:02:00,
2013-01-23 10:07:00,26.1,19.9,30.37,North,5,4.0,14.0,80,0.00,,,0.00,meteohub,2013-01-23 16:07:00,
2013-01-23 10:12:00,27.0,19.9,30.37,North,351,2.0,12.0,79,0.00,,,0.00,meteohub,2013-01-23 16:12:00,
2013-01-23 10:17:00,27.0,19.8,30.38,NE,46,7.0,13.0,79,0.00,,,0.00,meteohub,2013-01-23 16:17:00,
2013-01-23 10:22:00,27.0,20.1,30.38,North,355,3.0,13.0,78,0.00,,,0.00,meteohub,2013-01-23 16:22:00,
2013-01-23 10:27:00,28.0,20.5,30.37,North,355,5.0,13.0,77,0.00,,,0.00,meteohub,2013-01-23 16:27:00,
2013-01-23 10:32:00,28.0,20.8,30.38,North,9,8.0,10.0,75,0.00,,,0.00,meteohub,2013-01-23 16:32:00,
2013-01-23 10:37:00,28.9,20.3,30.39,ENE,61,9.0,11.0,74,0.00,,,0.00,meteohub,2013-01-23 16:37:00,
2013-01-23 10:42:00,28.9,19.8,30.38,NNE,32,7.0,15.0,71,0.00,,,0.00,meteohub,2013-01-23 16:42:00,
2013-01-23 10:47:00,28.0,19.4,30.38,NE,46,10.0,15.0,71,0.00,,,0.00,meteohub,2013-01-23 16:47:00,
2013-01-23 10:52:00,28.0,19.4,30.38,NE,46,6.0,14.0,72,0.00,,,0.00,meteohub,2013-01-23 16:52:00,
2013-01-23 10:57:00,28.9,19.8,30.38,North,9,9.0,14.0,72,0.00,,,0.00,meteohub,2013-01-23 16:57:00,
2013-01-23 11:02:00,28.9,19.8,30.38,NNE,26,3.0,14.0,71,0.00,,,0.00,meteohub,2013-01-23 17:02:00,
2013-01-23 11:07:00,28.9,19.6,30.38,NNW,348,5.0,14.0,70,0.00,,,0.00,meteohub,2013-01-23 17:07:00,
2013-01-23 11:12:00,28.9,19.4,30.37,NNE,25,7.0,15.0,70,0.00,,,0.00,meteohub,2013-01-23 17:12:00,
2013-01-23 11:17:00,28.9,19.8,30.37,North,355,4.0,15.0,70,0.00,,,0.00,meteohub,2013-01-23 17:17:00,
2013-01-23 11:22:00,28.9,20.1,30.37,NE,37,7.0,12.0,69,0.00,,,0.00,meteohub,2013-01-23 17:22:00,
2013-01-23 11:27:00,30.0,20.1,30.37,NNE,26,11.0,12.0,67,0.00,,,0.00,meteohub,2013-01-23 17:27:00,
2013-01-23 11:32:00,30.0,19.8,30.37,NE,34,7.0,14.0,68,0.00,,,0.00,meteohub,2013-01-23 17:32:00,
2013-01-23 11:37:00,30.0,20.3,30.37,NE,34,9.0,14.0,68,0.00,,,0.00,meteohub,2013-01-23 17:37:00,
2013-01-23 11:42:00,30.0,20.1,30.37,ENE,60,5.0,15.0,68,0.00,,,0.00,meteohub,2013-01-23 17:42:00,
2013-01-23 11:47:00,30.9,20.7,30.36,NNW,331,3.0,15.0,67,0.00,,,0.00,meteohub,2013-01-23 17:47:00,
2013-01-23 11:52:00,30.9,20.5,30.37,North,5,7.0,12.0,67,0.00,,,0.00,meteohub,2013-01-23 17:52:00,
2013-01-23 11:57:00,32.0,19.9,30.37,NNE,17,7.0,12.0,65,0.00,,,0.00,meteohub,2013-01-23 17:57:00,
2013-01-23 12:02:00,32.0,20.1,30.36,NNW,336,5.0,12.0,64,0.00,,,0.00,meteohub,2013-01-23 18:02:00,
2013-01-23 12:07:00,33.1,20.7,30.36,North,5,8.0,14.0,63,0.00,,,0.00,meteohub,2013-01-23 18:07:00,
2013-01-23 12:12:00,33.1,20.7,30.36,NNE,15,10.0,14.0,62,0.00,,,0.00,meteohub,2013-01-23 18:12:00,
2013-01-23 12:17:00,33.1,20.1,30.36,NE,53,9.0,13.0,62,0.00,,,0.00,meteohub,2013-01-23 18:17:00,
2013-01-23 12:22:00,33.1,20.1,30.36,NNE,30,10.0,17.0,60,0.00,,,0.00,meteohub,2013-01-23 18:22:00,
2013-01-23 12:27:00,33.1,19.8,30.36,North,9,6.0,17.0,59,0.00,,,0.00,meteohub,2013-01-23 18:27:00,
2013-01-23 12:32:00,33.1,19.4,30.36,North,11,11.0,17.0,60,0.00,,,0.00,meteohub,2013-01-23 18:32:00,
2013-01-23 12:37:00,32.0,19.6,30.36,NE,42,15.0,15.0,61,0.00,,,0.00,meteohub,2013-01-23 18:37:00,
2013-01-23 12:42:00,33.1,19.6,30.36,NE,34,7.0,17.0,61,0.00,,,0.00,meteohub,2013-01-23 18:42:00,
2013-01-23 12:47:00,33.1,19.8,30.36,NNE,32,11.0,17.0,61,0.00,,,0.00,meteohub,2013-01-23 18:47:00,
2013-01-23 12:52:00,33.1,19.6,30.36,North,351,6.0,17.0,61,0.00,,,0.00,meteohub,2013-01-23 18:52:00,
2013-01-23 13:02:00,33.1,19.8,30.36,North,355,6.0,14.0,60,0.00,,,0.00,meteohub,2013-01-23 19:02:00,
2013-01-23 13:07:00,33.1,19.8,30.36,NNW,328,6.0,14.0,60,0.00,,,0.00,meteohub,2013-01-23 19:07:00,
2013-01-23 13:12:00,33.1,19.4,30.36,NNE,30,11.0,14.0,60,0.00,,,0.00,meteohub,2013-01-23 19:12:00,
2013-01-23 13:17:00,33.1,19.9,30.36,North,5,3.0,14.0,60,0.00,,,0.00,meteohub,2013-01-23 19:17:00,
2013-01-23 13:22:00,33.1,19.9,30.36,North,355,9.0,16.0,60,0.00,,,0.00,meteohub,2013-01-23 19:22:00,
2013-01-23 13:27:00,33.1,19.0,30.36,NE,34,8.0,16.0,59,0.00,,,0.00,meteohub,2013-01-23 19:27:00,
2013-01-23 13:32:00,33.1,19.4,30.36,North,5,6.0,16.0,59,0.00,,,0.00,meteohub,2013-01-23 19:32:00,
2013-01-23 13:37:00,33.1,19.4,30.35,North,10,12.0,15.0,58,0.00,,,0.00,meteohub,2013-01-23 19:37:00,
2013-01-23 13:42:00,33.1,19.2,30.35,WNW,299,7.0,15.0,58,0.00,,,0.00,meteohub,2013-01-23 19:42:00,
2013-01-23 13:47:00,33.1,19.0,30.35,NNE,13,6.0,15.0,58,0.00,,,0.00,meteohub,2013-01-23 19:47:00,
2013-01-23 13:52:00,33.1,18.7,30.36,NNW,348,9.0,16.0,58,0.00,,,0.00,meteohub,2013-01-23 19:52:00,
2013-01-23 13:57:00,33.1,19.0,30.36,NNE,22,9.0,16.0,59,0.00,,,0.00,meteohub,2013-01-23 19:57:00,
2013-01-23 14:02:00,33.1,19.4,30.36,NE,36,7.0,19.0,59,0.00,,,0.00,meteohub,2013-01-23 20:02:00,
2013-01-23 14:07:00,33.1,19.0,30.36,North,349,11.0,19.0,57,0.00,,,0.00,meteohub,2013-01-23 20:07:00,
2013-01-23 14:12:00,33.1,19.0,30.36,NE,34,4.0,15.0,59,0.00,,,0.00,meteohub,2013-01-23 20:12:00,
2013-01-23 14:17:00,32.0,18.5,30.36,NNE,15,1.0,15.0,59,0.00,,,0.00,meteohub,2013-01-23 20:17:00,
2013-01-23 14:22:00,32.0,19.0,30.36,NNE,12,9.0,16.0,60,0.00,,,0.00,meteohub,2013-01-23 20:22:00,
2013-01-23 14:27:00,32.0,19.6,30.35,NE,46,12.0,16.0,61,0.00,,,0.00,meteohub,2013-01-23 20:27:00,
2013-01-23 14:32:00,32.0,19.6,30.35,NW,325,5.0,17.0,61,0.00,,,0.00,meteohub,2013-01-23 20:32:00,
2013-01-23 14:37:00,32.0,19.2,30.35,NE,41,8.0,17.0,60,0.00,,,0.00,meteohub,2013-01-23 20:37:00,
2013-01-23 14:42:00,32.0,18.5,30.35,North,0,6.0,16.0,60,0.00,,,0.00,meteohub,2013-01-23 20:42:00,
2013-01-23 14:47:00,33.1,18.7,30.35,NE,47,8.0,17.0,59,0.00,,,0.00,meteohub,2013-01-23 20:47:00,
2013-01-23 14:52:00,32.0,18.0,30.35,North,10,10.0,17.0,57,0.00,,,0.00,meteohub,2013-01-23 20:52:00,
2013-01-23 14:57:00,32.0,18.9,30.35,NW,313,6.0,17.0,59,0.00,,,0.00,meteohub,2013-01-23 20:57:00,
2013-01-23 15:02:00,32.0,19.0,30.36,North,0,6.0,15.0,59,0.00,,,0.00,meteohub,2013-01-23 21:02:00,
2013-01-23 15:07:00,32.0,18.3,30.36,NNW,346,4.0,14.0,58,0.00,,,0.00,meteohub,2013-01-23 21:07:00,
2013-01-23 15:12:00,30.9,18.5,30.37,NNE,28,13.0,14.0,60,0.00,,,0.00,meteohub,2013-01-23 21:12:00,
2013-01-23 15:17:00,30.9,19.2,30.37,NNE,26,8.0,17.0,62,0.00,,,0.00,meteohub,2013-01-23 21:17:00,
2013-01-23 15:22:00,30.9,19.4,30.37,North,350,3.0,17.0,62,0.00,,,0.00,meteohub,2013-01-23 21:22:00,
2013-01-23 15:27:00,30.9,19.4,30.37,North,350,10.0,17.0,62,0.00,,,0.00,meteohub,2013-01-23 21:27:00,
2013-01-23 15:32:00,30.0,18.3,30.38,NW,309,10.0,18.0,61,0.00,,,0.00,meteohub,2013-01-23 21:32:00,
2013-01-23 15:37:00,30.0,18.3,30.39,NNE,23,11.0,19.0,62,0.00,,,0.00,meteohub,2013-01-23 21:37:00,
2013-01-23 15:42:00,30.0,18.5,30.39,NNE,18,9.0,19.0,63,0.00,,,0.00,meteohub,2013-01-23 21:42:00,
2013-01-23 15:47:00,30.0,18.5,30.39,NNE,15,6.0,19.0,63,0.00,,,0.00,meteohub,2013-01-23 21:47:00,
2013-01-23 15:52:00,30.0,19.0,30.40,NNE,22,13.0,16.0,64,0.00,,,0.00,meteohub,2013-01-23 21:52:00,
2013-01-23 15:57:00,30.0,18.7,30.40,NNE,21,5.0,17.0,62,0.00,,,0.00,meteohub,2013-01-23 21:57:00,
2013-01-23 16:02:00,30.0,18.7,30.40,NNE,30,5.0,17.0,63,0.00,,,0.00,meteohub,2013-01-23 22:02:00,
2013-01-23 16:07:00,30.0,18.9,30.39,NNE,22,10.0,17.0,63,0.00,,,0.00,meteohub,2013-01-23 22:07:00,
2013-01-23 16:12:00,30.0,18.3,30.40,North,0,7.0,16.0,63,0.00,,,0.00,meteohub,2013-01-23 22:12:00,
2013-01-23 16:17:00,28.9,18.1,30.40,North,0,7.0,16.0,63,0.00,,,0.00,meteohub,2013-01-23 22:17:00,
2013-01-23 16:27:00,28.0,18.1,30.41,NNE,14,11.0,16.0,65,0.00,,,0.00,meteohub,2013-01-23 22:27:00,
2013-01-23 16:37:00,28.0,17.6,30.41,NNW,348,4.0,13.0,66,0.00,,,0.00,meteohub,2013-01-23 22:37:00,
2013-01-23 16:42:00,27.0,18.0,30.41,NE,36,8.0,16.0,67,0.00,,,0.00,meteohub,2013-01-23 22:42:00,
2013-01-23 16:47:00,27.0,17.8,30.41,NE,34,8.0,16.0,67,0.00,,,0.00,meteohub,2013-01-23 22:47:00,
2013-01-23 16:57:00,27.0,17.2,30.41,NE,45,8.0,14.0,68,0.00,,,0.00,meteohub,2013-01-23 22:57:00,
2013-01-23 17:02:00,26.1,17.2,30.41,North,350,7.0,12.0,68,0.00,,,0.00,meteohub,2013-01-23 23:02:00,
2013-01-23 17:12:00,26.1,17.2,30.42,NNE,31,5.0,12.0,69,0.00,,,0.00,meteohub,2013-01-23 23:12:00,
2013-01-23 17:17:00,26.1,17.1,30.42,North,350,5.0,12.0,69,0.00,,,0.00,meteohub,2013-01-23 23:17:00,
2013-01-23 17:27:00,25.0,16.5,30.42,North,0,2.0,12.0,70,0.00,,,0.00,meteohub,2013-01-23 23:27:00,
2013-01-23 17:32:00,25.0,16.5,30.41,NNW,346,4.0,11.0,70,0.00,,,0.00,meteohub,2013-01-23 23:32:00,
2013-01-23 17:37:00,24.1,16.0,30.42,North,355,6.0,11.0,71,0.00,,,0.00,meteohub,2013-01-23 23:37:00,
2013-01-23 17:42:00,24.1,16.2,30.42,North,355,5.0,11.0,71,0.00,,,0.00,meteohub,2013-01-23 23:42:00,
2013-01-23 17:47:00,24.1,16.0,30.43,North,351,6.0,9.0,71,0.00,,,0.00,meteohub,2013-01-23 23:47:00,
2013-01-23 17:52:00,24.1,15.8,30.43,NNW,348,3.0,9.0,71,0.00,,,0.00,meteohub,2013-01-23 23:52:00,
2013-01-23 18:02:00,23.0,15.8,30.45,North,355,2.0,10.0,72,0.00,,,0.00,meteohub,2013-01-24 00:02:00,
2013-01-23 18:07:00,23.0,16.0,30.45,NNE,25,6.0,10.0,72,0.00,,,0.00,meteohub,2013-01-24 00:07:00,
2013-01-23 18:12:00,23.0,15.8,30.45,North,11,5.0,9.0,73,0.00,,,0.00,meteohub,2013-01-24 00:12:00,
2013-01-23 18:17:00,23.0,15.6,30.45,North,11,8.0,14.0,73,0.00,,,0.00,meteohub,2013-01-24 00:17:00,
2013-01-23 18:22:00,23.0,15.3,30.46,NNE,24,6.0,14.0,73,0.00,,,0.00,meteohub,2013-01-24 00:22:00,
2013-01-23 18:27:00,23.0,15.1,30.46,North,11,5.0,14.0,74,0.00,,,0.00,meteohub,2013-01-24 00:27:00,
2013-01-23 18:32:00,21.9,15.3,30.47,NNE,16,6.0,14.0,73,0.00,,,0.00,meteohub,2013-01-24 00:32:00,
2013-01-23 18:37:00,21.9,15.1,30.47,North,5,3.0,13.0,74,0.00,,,0.00,meteohub,2013-01-24 00:37:00,
2013-01-23 18:42:00,21.9,14.7,30.48,North,9,2.0,13.0,74,0.00,,,0.00,meteohub,2013-01-24 00:42:00,
2013-01-23 18:47:00,21.9,14.9,30.48,North,355,1.0,12.0,74,0.00,,,0.00,meteohub,2013-01-24 00:47:00,
2013-01-23 18:52:00,21.0,14.9,30.48,NNW,336,4.0,12.0,74,0.00,,,0.00,meteohub,2013-01-24 00:52:00,
2013-01-23 18:57:00,21.0,14.7,30.48,North,9,4.0,12.0,75,0.00,,,0.00,meteohub,2013-01-24 00:57:00,
2013-01-23 19:02:00,21.0,14.4,30.48,North,0,1.0,12.0,75,0.00,,,0.00,meteohub,2013-01-24 01:02:00,
2013-01-23 19:07:00,21.0,14.7,30.48,NW,321,2.0,9.0,75,0.00,,,0.00,meteohub,2013-01-24 01:07:00,
2013-01-23 19:12:00,21.0,14.5,30.48,North,9,5.0,8.0,76,0.00,,,0.00,meteohub,2013-01-24 01:12:00,
2013-01-23 19:22:00,21.0,14.4,30.48,NNW,347,3.0,8.0,76,0.00,,,0.00,meteohub,2013-01-24 01:22:00,
2013-01-23 19:27:00,19.9,14.2,30.48,North,5,4.0,11.0,76,0.00,,,0.00,meteohub,2013-01-24 01:27:00,
2013-01-23 19:32:00,19.9,14.0,30.48,NNE,21,5.0,11.0,76,0.00,,,0.00,meteohub,2013-01-24 01:32:00,
2013-01-23 19:42:00,19.9,12.9,30.48,NNE,17,15.0,17.0,75,0.00,,,0.00,meteohub,2013-01-24 01:42:00,
2013-01-23 19:47:00,19.9,12.7,30.48,NE,49,5.0,17.0,75,0.00,,,0.00,meteohub,2013-01-24 01:47:00,
2013-01-23 19:57:00,19.0,12.6,30.48,North,11,6.0,15.0,75,0.00,,,0.00,meteohub,2013-01-24 01:57:00,
2013-01-23 20:02:00,19.0,12.6,30.49,NNW,334,5.0,15.0,75,0.00,,,0.00,meteohub,2013-01-24 02:02:00,
2013-01-23 20:07:00,19.0,12.4,30.49,North,5,4.0,14.0,75,0.00,,,0.00,meteohub,2013-01-24 02:07:00,
2013-01-23 20:17:00,19.0,12.2,30.51,NNW,338,2.0,13.0,75,0.00,,,0.00,meteohub,2013-01-24 02:17:00,
2013-01-23 20:27:00,19.0,11.5,30.51,NNE,30,5.0,16.0,74,0.00,,,0.00,meteohub,2013-01-24 02:27:00,
2013-01-23 20:32:00,18.0,11.3,30.51,NNW,340,3.0,16.0,74,0.00,,,0.00,meteohub,2013-01-24 02:32:00,
2013-01-23 20:42:00,18.0,10.6,30.50,NNE,29,14.0,15.0,73,0.00,,,0.00,meteohub,2013-01-24 02:42:00,
2013-01-23 20:47:00,18.0,10.2,30.51,North,0,6.0,16.0,72,0.00,,,0.00,meteohub,2013-01-24 02:47:00,
2013-01-23 20:52:00,18.0,10.2,30.52,NNE,12,4.0,16.0,73,0.00,,,0.00,meteohub,2013-01-24 02:52:00,
2013-01-23 21:02:00,17.1,10.0,30.53,NE,35,7.0,13.0,73,0.00,,,0.00,meteohub,2013-01-24 03:02:00,
2013-01-23 21:07:00,17.1,9.9,30.52,NNE,13,7.0,13.0,73,0.00,,,0.00,meteohub,2013-01-24 03:07:00,
2013-01-23 21:17:00,17.1,9.9,30.52,NE,40,3.0,13.0,74,0.00,,,0.00,meteohub,2013-01-24 03:17:00,
2013-01-23 21:22:00,17.1,9.7,30.52,NNE,32,2.0,9.0,75,0.00,,,0.00,meteohub,2013-01-24 03:22:00,
2013-01-23 21:27:00,16.0,9.9,30.51,NNE,14,4.0,9.0,75,0.00,,,0.00,meteohub,2013-01-24 03:27:00,
2013-01-23 21:32:00,16.0,9.9,30.52,North,5,10.0,13.0,75,0.00,,,0.00,meteohub,2013-01-24 03:32:00,
2013-01-23 21:37:00,16.0,9.7,30.52,NNE,32,5.0,13.0,75,0.00,,,0.00,meteohub,2013-01-24 03:37:00,
2013-01-23 21:47:00,16.0,9.5,30.53,NNE,13,4.0,12.0,75,0.00,,,0.00,meteohub,2013-01-24 03:47:00,
2013-01-23 21:52:00,16.0,9.5,30.54,NNE,16,5.0,12.0,75,0.00,,,0.00,meteohub,2013-01-24 03:52:00,
2013-01-23 21:57:00,16.0,9.5,30.54,North,5,3.0,11.0,76,0.00,,,0.00,meteohub,2013-01-24 03:57:00,
2013-01-23 22:07:00,16.0,9.5,30.56,North,0,3.0,10.0,76,0.00,,,0.00,meteohub,2013-01-24 04:07:00,
2013-01-23 22:12:00,16.0,9.5,30.56,North,355,2.0,9.0,76,0.00,,,0.00,meteohub,2013-01-24 04:12:00,
2013-01-23 22:17:00,15.1,9.3,30.56,NNE,30,6.0,9.0,76,0.00,,,0.00,meteohub,2013-01-24 04:17:00,
2013-01-23 22:27:00,15.1,9.1,30.56,NNE,12,5.0,9.0,76,0.00,,,0.00,meteohub,2013-01-24 04:27:00,
2013-01-23 22:32:00,15.1,9.1,30.56,NE,34,5.0,11.0,76,0.00,,,0.00,meteohub,2013-01-24 04:32:00,
2013-01-23 22:37:00,15.1,9.1,30.56,NNW,342,4.0,11.0,76,0.00,,,0.00,meteohub,2013-01-24 04:37:00,
2013-01-23 22:47:00,15.1,9.0,30.56,NNE,32,5.0,12.0,76,0.00,,,0.00,meteohub,2013-01-24 04:47:00,
2013-01-23 22:52:00,15.1,8.8,30.56,NE,50,4.0,12.0,77,0.00,,,0.00,meteohub,2013-01-24 04:52:00,
2013-01-23 22:57:00,15.1,8.8,30.56,NE,47,4.0,9.0,77,0.00,,,0.00,meteohub,2013-01-24 04:57:00,
2013-01-23 23:02:00,15.1,8.6,30.56,NNE,27,5.0,9.0,77,0.00,,,0.00,meteohub,2013-01-24 05:02:00,
2013-01-23 23:07:00,14.0,8.4,30.56,NNE,30,4.0,9.0,77,0.00,,,0.00,meteohub,2013-01-24 05:07:00,
2013-01-23 23:12:00,14.0,8.2,30.56,NE,34,2.0,9.0,78,0.00,,,0.00,meteohub,2013-01-24 05:12:00,
2013-01-23 23:17:00,14.0,8.4,30.56,NE,34,5.0,8.0,78,0.00,,,0.00,meteohub,2013-01-24 05:17:00,
2013-01-23 23:22:00,14.0,7.7,30.56,NE,53,8.0,9.0,77,0.00,,,0.00,meteohub,2013-01-24 05:22:00,
2013-01-23 23:27:00,14.0,7.2,30.56,ENE,69,9.0,11.0,75,0.00,,,0.00,meteohub,2013-01-24 05:27:00,
2013-01-23 23:32:00,14.0,6.4,30.55,NNE,24,7.0,15.0,74,0.00,,,0.00,meteohub,2013-01-24 05:32:00,
2013-01-23 23:42:00,12.9,6.6,30.56,NNE,30,8.0,15.0,74,0.00,,,0.00,meteohub,2013-01-24 05:42:00,
2013-01-23 23:47:00,12.9,6.4,30.56,NE,42,6.0,12.0,74,0.00,,,0.00,meteohub,2013-01-24 05:47:00,
2013-01-23 23:52:00,12.9,6.4,30.56,NE,41,7.0,12.0,74,0.00,,,0.00,meteohub,2013-01-24 05:52:00,
2013-01-23 23:57:00,12.9,6.3,30.56,NE,40,6.0,13.0,75,0.00,,,0.00,meteohub,2013-01-24 05:57:00,